STARLINK-32823, 62823

Orbit data source: Space-Track

STARLINK-32823, 62823 is a payload satellite owned by SpaceX/Seattle (US) in LEO that was launched on Fri, 24 Jan 2025 UTC via an FALCON 9 launch vehicle from the Air Force Western Test Range (AFWTR). Payload-class satellites include a variety of spacecraft equipped with specific instruments for various scientific and technological missions. These include communications satellites like Starlink; space stations such as the ISS; scientific satellites like the Hubble; Earth observation satellites from companies like Planet Labs, Umbra, and HawkEye 360; GPS; miniature CubeSats for education and research; and military/defense satellites.

Loading next visibility...
Identifier
62823, 2025-018T
Orbit
LEO
Country
Flag of USUS
Related business
Manufacturer
SpaceX/Seattle
Mission
Operational Commercial Communications
Bus & Motor
STARLINK V2M, Unknown motor
Mass
730 kg wet, ~700 kg dry
Launch date (UTC)
2025-01-24 (9 months ago)
Launch vehicle
FALCON 9
Launch site
Air Force Western Test Range (AFWTR)
Object type
Payload
Rocket body
Debris
Shape & HBR
Box + 2 Pan, 17.7 m
Radar Cross Section
33.884 m², Large (>1 m²)

Expand to show TLE details & history
Last TLE update: 23 hours ago

TLE from 23 hours ago
0 STARLINK-32823
1 62823U 25018T   25296.54145281  .00051118  00000-0  17258-2 0  9992
2 62823  53.1611 226.4020 0000883  99.1975 260.9126 15.30207175 42187
Epoch: 2025-10-23T12:59Z
TLE epoch observation values (Epoch: 2025-10-23T12:59:41.522Z)
Latitude
-0.00001°
Longitude
-0.72024°
Altitude
476.189 km
Speed
7.629 km/s
True Right ascension
15h 05m 36s
True Declination
0° 00' 00"
Sunlit
Object was in daylight at epoch
Visualization orbit readout
Latitude
Unknown
Longitude
Unknown
Altitude
Unknown
Speed
Unknown
Apparent Right ascension
Unknown
Apparent Declination
Unknown
Sunlit
N/A
Visualization observer readout
Local Sidereal Time
07:38:24
Azimuth
Unknown
Elevation
Unknown
Doppler factor
Unknown
Orbital elements
Apogee altitude
476.055 km
Perigee altitude
474.845 km
Semi-major axis
6,853.587 km
Eccentricity
0.00009
Inclination
53.1611°
RAAN
226.402°
Arg. of periapsis
99.1975°
True anomaly
260.90261°
Mean anomaly
260.9126°
Eccentric anomaly
260.9076°
Mean motion
3.82531 °/min
Orbital period
94.11 mins
BSTAR
0.0017258
Loading maneuver chart data...
Computing Atmospheric mass density...
Loading historical data...
Loading historical data...
Loading historical data...
Loading historical data...
Loading historical data...
Loading historical data...
Loading historical data...

Documentation

Showing up to 5 results
|